Location: Staplehurst
(51.1500°N, 0.5500°E)
Time: 08:01:01
(UTC+00:00)

Daily predictions for brighter satellites

Satellite Brightness Start Highest point End
(mag) Time Altitude Azimuth Time Altitude Azimuth Time Altitude Azimuth
Cosmos 1271 Rocket 2.9 20:55:44 10° N 20:59:44 66° ENE 21:03:40 10° SSE
NOSS 2-1 (E) 4.0 21:00:10 10° NW 21:04:32 88° SW 21:10:45 10° SE
SPOT 3 Rocket 3.7 21:01:09 10° SSE 21:06:21 78° WSW 21:11:36 10° NNW
RESURS DK-1 3.3 21:04:50 10° NNW 21:08:44 38° NE 21:12:36 10° ESE
ERS-1 Rocket 3.1 21:04:26 10° SSE 21:09:26 69° ENE 21:14:28 10° N
Lacrosse 4 Rocket 4.1 21:09:23 10° W 21:12:49 25° NW 21:16:12 10° NNE
CZ-2C R/B 4.2 21:11:47 10° NNE 21:16:11 42° E 21:20:28 10° S
Cosmos 2056 Rocket 3.6 21:12:02 10° SSW 21:17:26 89° ESE 21:22:54 10° NNE
Cosmos 1025 Rocket 3.3 21:13:38 10° SSW 21:17:53 70° WNW 21:22:12 10° N
Cosmos 1455 Rocket 4.2 21:14:15 10° NNW 21:18:22 42° W 21:22:26 10° SSW
Cosmos 2315 Rocket 4.3 21:14:11 10° SSW 21:20:31 77° W 21:26:51 10° N
Cosmos 1741 Rocket 4.4 21:15:22 10° NNW 21:20:38 58° ENE 21:25:51 10° SE
ARIANE 5 R/B 3.0 21:18:17 10° SE 21:22:39 54° ENE 21:26:59 10° N
Cosmos 676 Rocket 4.5 21:18:29 10° NNW 21:23:45 60° WSW 21:28:56 10° S
Cosmos 1420 Rocket 4.0 21:20:03 10° SSW 21:25:18 85° ESE 21:30:38 10° NNE
Cosmos 2344 4.4 21:17:27 10° NW 21:25:47 66° NE 21:37:10 10° ESE
SL-8 R/B 3.8 21:22:31 10° W 21:27:17 62° S 21:32:03 10° ESE
Cosmos 1455 2.7 21:27:11 10° NNW 21:30:57 58° W 21:34:41 10° S
Cosmos 2074 Rocket 4.1 21:27:29 10° N 21:33:49 79° E 21:40:04 10° SSE
Meteor 2-5 Rocket 4.5 21:34:38 10° SSW 21:40:02 54° WNW 21:45:31 10° N
USA 32 4.4 21:34:53 10° SSW 21:40:04 67° W 21:45:18 10° N
Cosmos 1607 4.1 21:36:42 10° SW 21:42:56 83° NW 21:49:10 10° NE
SL-16 R/B 4.5 21:39:11 10° NNW 21:43:03 18° NNE 21:46:53 10° ENE
USA 267 3.6 21:38:52 10° ENE 21:45:02 42° SE 21:51:10 10° SSW
Cosmos 1536 Rocket 3.5 21:43:56 10° S 21:48:15 86° E 21:52:38 10° N
Cosmos 2228 3.0 21:44:13 10° N 21:48:29 75° E 21:52:05 14° SSE
Tiangong 3.4 21:49:12 10° SW 21:50:13 11° SSW 21:50:37 11° S
Cosmos 1850 Rocket 4.0 21:45:36 10° NNW 21:50:51 84° WSW 21:55:21 14° SSE
Cosmos 1980 Rocket 3.1 21:45:42 10° NNW 21:51:08 42° NE 21:56:31 10° ESE
SPOT 5 3.5 21:46:56 10° S 21:51:11 45° W 21:55:22 10° NNW
Nadezhda 1 Rocket 4.1 21:47:09 10° S 21:53:01 58° E 21:58:58 10° NNE
Cosmos 1606 Rocket 3.8 21:49:15 10° N 21:53:31 56° ENE 21:56:56 15° SSE
Cosmos 1697 Rocket 2.8 21:48:14 10° NNW 21:53:53 72° ENE 21:58:44 14° SE
Cosmos 1703 3.2 21:51:23 10° S 21:55:12 78° E 21:59:05 10° NNE
Cosmos 2154 Rocket 4.0 21:52:22 10° N 21:58:39 85° E 22:04:14 13° S
Cosmos 2084 Rocket 4.1 21:55:03 10° NW 21:58:46 45° NE 22:02:38 10° ESE
Cosmos 2084 3.7 21:56:16 10° WSW 22:00:04 62° NW 22:03:57 10° NE
Cosmos 1656 4.1 21:57:57 10° NW 22:03:16 54° WSW 22:07:55 14° S
USA 276 2.2 22:00:33 10° WSW 22:03:28 46° SSE 22:06:22 10° E
Cosmos 1328 4.2 22:04:04 17° SSE 22:06:58 47° E 22:10:50 10° NNE
Cosmos 1331 Rocket 4.3 22:04:06 11° S 22:08:59 52° ESE 22:14:08 10° NNE
X-37B 1.5 22:10:27 10° SW 22:12:46 23° S 22:12:57 23° S
Meteor 1-21 Rocket 4.2 22:10:01 11° S 22:15:24 79° E 22:21:06 10° NNE
Lacrosse 5 3.2 22:12:41 10° WNW 22:16:55 26° SW 22:20:08 15° S
Cosmos 1408 3.7 22:15:25 19° SE 22:17:03 27° E 22:20:02 10° NNE
Cosmos 1726 Rocket 3.5 22:13:59 10° N 22:18:20 77° ENE 22:21:23 19° SSE
SAR-Lupe-4 3.6 22:15:02 10° NNE 22:18:35 60° ESE 22:20:59 19° S
Cosmos 1452 Rocket 3.6 22:13:43 10° SSW 22:18:59 83° WNW 22:24:17 10° NNE
ATLAS 2AS CENTAUR R/B 3.9 22:14:01 10° NW 22:20:04 31° WSW 22:25:25 12° S
FALCON 9 DEB 3.6 22:17:15 10° W 22:20:30 60° N 22:23:44 10° E
USA 234 3.3 22:14:29 10° ESE 22:21:04 82° SSW 22:27:40 10° WNW
Terra 3.0 22:17:01 10° SSW 22:21:25 37° W 22:25:50 10° NNW
Cosmos 2322 Rocket 4.2 22:18:10 10° NNW 22:22:32 22° NE 22:26:53 10° E
Cosmos 1833 Rocket 2.7 22:18:04 10° SSW 22:23:37 66° ESE 22:29:12 10° NE
Cosmos 1867 4.0 22:20:48 10° NW 22:26:14 59° NE 22:31:17 12° ESE
Cosmos 2278 4.5 22:21:45 10° NNW 22:27:17 46° NE 22:32:24 12° ESE
SL-8 Rocket 4.2 22:22:53 10° N 22:29:06 61° ENE 22:33:46 18° SSE
Cosmos 1110 Rocket 4.0 22:25:53 10° SSW 22:31:08 83° ESE 22:36:29 10° NNE
Cosmos 2360 4.4 22:26:17 10° NW 22:31:59 67° WSW 22:36:09 19° SSE
Cosmos 1900 4.5 22:27:48 10° NW 22:32:58 72° SW 22:36:32 20° SSE
SAR-Lupe-1 4.1 22:31:08 10° NNE 22:34:44 80° WNW 22:37:27 16° SSW
Cosmos 1302 Rocket 4.5 22:31:56 19° SSE 22:35:20 44° ESE 22:40:15 10° NE
ALOS 2 3.6 22:32:45 16° SE 22:35:49 38° ENE 22:39:53 10° N
Cosmos 2218 Rocket 4.3 22:34:48 10° N 22:41:11 64° ENE 22:45:53 19° SSE
Cosmos 2366 rocket 4.2 22:38:39 10° N 22:44:58 67° ENE 22:49:34 19° SSE
Cosmos 2082 Rocket 2.6 22:42:49 19° S 22:46:33 45° ESE 22:51:58 10° NE
RESURS DK-1 3.7 22:43:00 10° NW 22:46:37 29° WSW 22:48:58 17° SSW
H-2A R/B 4.4 22:45:23 10° NNE 22:49:12 33° E 22:51:09 22° SE
Cosmos 2341 Rocket 4.0 22:43:06 10° N 22:49:29 86° W 22:54:07 19° S
Cosmos 2058 Rocket 3.1 22:47:55 10° NNW 22:52:20 83° W 22:55:04 23° S
Spot 4 3.8 22:52:43 22° SSE 22:55:47 87° ENE 23:00:37 10° NNW
Cosmos 1892 Rocket 3.6 22:53:33 19° SSW 22:56:44 78° WNW 23:01:08 10° N
Cosmos 1825 2.7 22:58:50 26° SSE 23:00:27 42° E 23:04:02 10° NNE
Cosmos 2360 Rocket 4.1 22:57:32 10° NNW 23:02:15 26° NE 23:06:57 10° E
Cosmos 968 Rocket 3.6 22:58:58 10° NNW 23:04:07 66° WSW 23:07:22 23° S
Cosmos 192 4.3 23:00:40 18° SSW 23:04:21 82° ESE 23:09:17 10° NNE
ERS-2 3.7 23:01:57 10° NE 23:04:47 21° E 23:05:53 19° ESE
Cosmos-2242 4.1 23:01:47 10° N 23:05:41 34° ENE 23:08:16 18° SE
GP-B 3.6 23:03:56 10° N 23:08:17 56° W 23:11:19 19° SSW
SL-8 R/B 4.4 23:05:01 10° W 23:09:24 35° SSW 23:11:22 25° SSE
Cosmos 1959 Rocket 4.4 23:03:21 10° N 23:09:30 89° W 23:13:40 22° S
Cosmos 1626 Rocket 3.8 23:10:22 26° SSE 23:12:36 56° E 23:16:52 10° NNE
Cosmos 1869 3.2 23:11:21 10° N 23:15:15 86° E 23:17:08 29° SSE
Cosmos 1606 4.2 23:12:42 10° N 23:16:05 29° ENE 23:18:18 17° ESE
BREEZE-M DEB (TANK) 3.5 23:13:23 10° W 23:16:29 72° S 23:27:54 10° ESE
Meteor 1-27 4.2 23:11:29 10° NNW 23:17:06 83° WSW 23:20:39 23° S
ASTEX 1 4.3 23:13:24 10° N 23:18:10 45° WNW 23:22:15 14° SW
Cosmos 2181 Rocket 4.0 23:20:12 20° S 23:24:39 85° W 23:30:56 10° N
COSMOS 2406 3.4 23:19:53 11° SW 23:25:22 77° WNW 23:31:10 10° NNE
ADEOS Rocket 3.5 23:20:28 21° SSE 23:25:41 87° WSW 23:33:26 10° NNW
Cosmos 1633 3.1 23:25:15 29° SE 23:26:27 41° E 23:29:45 10° NNE
Cosmos 2369 4.3 23:21:19 10° NW 23:26:45 45° WSW 23:30:04 22° S
SL-16 R/B 2.6 23:22:45 10° NNW 23:28:24 59° NE 23:33:07 15° SE
USA 267 3.3 23:21:51 10° ENE 23:28:26 83° NNW 23:34:59 10° WSW
Okean 1-7 Rocket 3.6 23:27:28 25° SSW 23:30:01 86° W 23:34:33 10° N
Cosmos 1892 3.4 23:30:47 20° SW 23:33:03 46° WNW 23:36:43 10° N
Cosmos 1980 Rocket 2.8 23:29:49 10° NW 23:35:11 43° WSW 23:38:22 22° SSW
SJ 16-02 2.3 23:31:44 10° NNW 23:36:00 43° ENE 23:39:12 16° SE
Cosmos 1486 Rocket 4.0 23:31:15 10° NNW 23:36:29 76° WSW 23:39:34 25° SSE
Cosmos 1697 Rocket 4.3 23:33:01 10° NW 23:37:18 23° WSW 23:40:27 14° SW
Cosmos 2084 Rocket 4.3 23:34:36 10° WNW 23:38:03 30° SW 23:39:10 26° SSW
USA 276 1.8 23:36:01 10° W 23:39:01 72° S 23:42:01 10° E
Cosmos 1821 Rocket 4.0 23:35:28 10° N 23:41:49 84° E 23:45:54 23° SSE
Cosmos 2219 Rocket 4.3 23:38:00 10° NNW 23:42:37 25° NE 23:47:12 10° E
Cosmos 1340 Rocket 4.4 23:48:44 17° SE 23:50:25 23° E 23:53:35 10° NE
Cosmos 1992 Rocket 4.0 23:48:18 23° SSW 23:51:37 83° ESE 23:56:54 10° NNE
Cosmos 1408 4.4 23:49:23 12° WSW 23:51:44 23° WNW 23:54:32 10° NNW
Resurs 1-4 Rocket 4.5 23:56:21 10° ENE 23:57:48 11° E 23:59:14 10° E
